This demonstration page uses our WeatherBlox Daily Observations layout. Learn more.

Left ArrowRight Arrow

Hourly Observations for February 17, 2017

Temp ( °F °C ) Dew Point ( °F °C ) Humidity (%) Winds ( mph kmh ) Pressure ( in mb ) Visibility ( mi km ) Precip ( " mm )
12:51 am 00:51 Clear 44 6.7 33 0.6 65 65 SSE 5 7 29.88 1012 10 16 N/A
1:51 am 01:51 Clear 45 7.2 34 1.1 66 66 N N/A 29.87 1012 10 16 N/A
2:51 am 02:51 Clear 45 7.2 35 1.7 68 68 E 5 7 29.86 1011 10 16 N/A
3:51 am 03:51 Clear 44 6.7 34 1.1 68 68 E 6 9 29.85 1011 10 16 N/A
4:51 am 04:51 Clear with Light Rain 44 6.7 34 1.1 68 68 ESE 5 7 29.85 1011 10 16 N/A
5:51 am 05:51 Clear 41 5 34 1.1 76 76 E 3 6 29.88 1012 10 16 N/A
6:51 am 06:51 Clear 40 4.4 33 0.6 77 77 N N/A 29.91 1013 10 16 N/A
7:51 am 07:51 Sunny 48 8.9 35 1.7 61 61 N N/A 29.91 1013 10 16 N/A
8:51 am 08:51 Sunny 47 8.3 36 2.2 66 66 undefined N/A 29.94 1014 10 16 N/A
9:51 am 09:51 Sunny 54 12.2 35 1.7 49 49 E 3 6 29.94 1014 10 16 N/A
10:51 am 10:51 Sunny 58 14.4 30 -1.1 35 35 SE 3 6 29.92 1013 10 16 N/A
11:51 am 11:51 Mostly Sunny 59 15 30 -1.1 33 33 S 3 6 29.88 1012 10 16 N/A
12:51 pm 12:51 Sunny 62 16.7 30 -1.1 30 30 NNW 5 7 29.84 1011 10 16 N/A
1:51 pm 13:51 Sunny 65 18.3 30 -1.1 27 27 N N/A 29.79 1009 10 16 N/A
2:51 pm 14:51 Sunny 65 18.3 30 -1.1 27 27 NE 5 7 29.77 1008 10 16 N/A
3:51 pm 15:51 Sunny 64 17.8 30 -1.1 28 28 E 7 11 29.75 1008 10 16 N/A
4:51 pm 16:51 Sunny 66 18.9 27 -2.8 23 23 NE 5 7 29.74 1007 10 16 N/A
5:51 pm 17:51 Sunny 63 17.2 30 -1.1 29 29 ENE 5 7 29.74 1007 10 16 N/A
6:51 pm 18:51 Clear 57 13.9 31 -0.6 37 37 E 6 9 29.73 1007 10 16 N/A
7:51 pm 19:51 Mostly Clear 54 12.2 32 undefined 43 43 N 5 7 29.76 1008 10 16 N/A
8:51 pm 20:51 Clear 53 11.7 32 undefined 45 45 SE 5 7 29.76 1008 10 16 N/A
9:51 pm 21:51 Clear 51 10.6 34 1.1 52 52 E 7 11 29.76 1008 10 16 N/A
10:51 pm 22:51 Clear 52 11.1 34 1.1 50 50 E 12 19 29.73 1007 10 16 N/A
11:51 pm 23:51 Clear 54 12.2 36 2.2 51 51 SE 7 11 29.72 1006 10 16 N/A

Powered by AerisWeather